Location: Cluj-Napoca
(46.7712°N, 23.6236°E)
Time: 13:33:57
(UTC+02:00)

ISS - Visible Passes

Search period start: 25 November 2017 00:00
Search period end: 05 December 2017 00:00
Orbit: 401 x 407 km, 51.6° (Epoch: 25 November)

Date Brightness Start Highest point End Pass type
(mag) Time Alt. Az. Time Alt. Az. Time Alt. Az.
27 Nov -1.9 18:33:24 10° S 18:35:06 19° SSE 18:35:06 19° SSE visible
28 Nov -1.5 17:42:22 10° SSE 17:43:48 12° SE 17:45:04 10° ESE visible
28 Nov -1.4 19:16:30 10° SW 19:17:44 21° SW 19:17:44 21° SW visible
29 Nov -3.3 18:24:18 10° SW 18:27:25 42° SE 18:27:37 42° SE visible
30 Nov -2.4 17:32:23 10° SSW 17:35:09 25° SE 17:37:25 13° E visible
30 Nov -2.0 19:08:09 10° WSW 19:10:04 31° W 19:10:04 31° W visible
01 Dec -3.9 18:15:41 10° WSW 18:18:58 85° SSE 18:19:49 47° ENE visible
02 Dec -3.4 17:23:22 10° SW 17:26:34 51° SSE 17:29:30 12° ENE visible
02 Dec -2.2 18:59:57 10° W 19:02:09 32° WNW 19:02:09 32° WNW visible
03 Dec -3.5 18:07:19 10° W 18:10:34 57° NNW 18:11:47 33° NE visible
03 Dec -0.3 19:44:24 10° WNW 19:44:26 10° WNW 19:44:26 10° WNW visible
04 Dec -3.8 17:14:46 10° WSW 17:18:03 84° NNW 17:21:20 10° ENE visible
04 Dec -2.3 18:51:45 10° WNW 18:54:02 30° NW 18:54:02 30° NW visible
